sat.trackr.live / text

‹ back to catalog

EYESAT A (AO-27)

NORAD 22825 · 1993-061C

PAYLOAD ACTIVE UNKNOWN

§ Identity

Operator
Country
US
Launch date
1993-09-26
Launch site
FRGUI
Launch vehicle
Mass (kg)
RCS (m²)
0.18

Purposes: comms

External: N2YO · Heavens-Above · Gunter

§ Orbital elements

Epoch: 2026-09-20T03:58:20.997120Z

Period
100.63 min
Inclination
98.6789°
Eccentricity
0.0008483
Mean motion
14.30962074 rev/d
Perigee alt
782.4 km
Apogee alt
794.6 km
Semi-major
7,166.7 km
B*
2.8062e-5
RAAN
330.5008°
Arg perigee
174.2728°
Mean anomaly
185.8553°
Rev number
72,058

§ Raw data

EYESAT A (AO-27)1 22825U 93061C   26263.16552080  .00000029  00000+0  28062-4 0  99962 22825  98.6789 330.5008 0008483 174.2728 185.8553 14.30962074720584

JSON: /api/v1/satellites/22825 · /tle

For live sub-satellite position, see the globe view (requires WebGL).

§ Visibility from observer

Set your observer location to see the next 7 days of passes ≥ 10°. The values pass through the URL so the page stays shareable.

No JS? Fill the form by hand. The geolocation button needs JavaScript.

§ Radio — SatNOGS DB

ModeDescriptionDownlinkUplink
FM Mode S 2.218 GHz
GMSK Mode U - GMSK9k6 436.797 MHz
AFSK Mode U AFSK Beacon 436.795 MHz
FM Mode V/U FM 436.795 MHz 145.850 MHz

4 transmitters · refreshed weekly from db.satnogs.org